Weather History for Midland, MI

Change the Weather History Date:

Sunday, August 17, 2014

  Actual Average (KMBS) Record (KMBS)
Temperature  
Mean Temperature 62 °F 69 °F  
Max Temperature 72 °F 80 °F 87 °F (1998)
Min Temperature 51 °F 59 °F 53 °F (1997)
Degree Days  
Heating Degree Days 4    
Month to date heating degree days  
Since 1 June heating degree days  
Since 1 July heating degree days  
Cooling Degree Days 0    
Month to date cooling degree days  
Year to date cooling degree days  
Since 1 June cooling degree days  
Growing Degree Days 12 (Base 50)    
Moisture  
Dew Point 58 °F    
Average Humidity 84    
Maximum Humidity 99    
Minimum Humidity 60    
Precipitation  
Precipitation 0.00 in 0.10 in 0.30 in (1998)
Month to date precipitation 1.76  
Year to date precipitation 18.97  
Snow  
Snow 0.00 in - - ()
Month to date snowfall  
Since 1 June snowfall  
Since 1 July snowfall  
Snow Depth -    
Sea Level Pressure  
Sea Level Pressure 30.00 in    
Wind  
Wind Speed 2 mph (ENE)    
Max Wind Speed 10 mph    
Max Gust Speed -    
Visibility 8 miles    
Events Fog    
T = Trace of Precipitation, MM = Missing Value Source: NWS Daily Summary

Daily Weather History Graph

Daily Weather History Graph

Search for Another Location

Airport:

Trip Planner

Search our weather history database for the weather conditions in past years. The results will help you decide how hot, cold, wet, or windy it might be!

Date:

Astronomy

Aug. 17, 2014 Rise Set
Actual Time 6:43 AM EDT 8:37 PM EDT
Civil Twilight 6:12 AM EDT 9:08 PM EDT
Nautical Twilight 5:35 AM EDT 9:45 PM EDT
Astronomical Twilight 4:54 AM EDT 10:26 PM EDT
Moon 12:07 AM EDT (8/17) 2:43 PM EDT (8/17)
Length of Visible Light 14h 55m
Length of Day
13h 53m
Waning Gibbous, 48% of the Moon is Illuminated
Aug 17
Waning Gibbous
Aug 25
New
Sep 2
First Quarter
Sep 8
Full
Sep 15
Last Quarter

Hourly Weather History & Observations

Time (EDT) Temp. Dew Point Humidity Pressure Visibility Wind Dir Wind Speed Gust Speed Precip Events Conditions
12:14 AM 63.5 °F 60.8 °F 91% 29.93 in 10.0 mi Calm Calm - N/A   Scattered Clouds
12:34 AM 63.1 °F 61.2 °F 93% 29.93 in 10.0 mi Calm Calm - N/A   Scattered Clouds
12:54 AM 61.5 °F 60.4 °F 96% 29.94 in 10.0 mi Calm Calm - N/A   Scattered Clouds
1:14 AM 61.3 °F 60.4 °F 97% 29.94 in 10.0 mi Calm Calm - N/A   Mostly Cloudy
1:34 AM 60.1 °F 58.6 °F 95% 29.94 in 10.0 mi Calm Calm - N/A   Scattered Clouds
1:54 AM 58.1 °F 57.2 °F 97% 29.94 in 0.5 mi Calm Calm - N/A Fog Fog
2:14 AM 58.6 °F 57.9 °F 97% 29.95 in 0.5 mi Calm Calm - N/A Fog Fog
2:34 AM 56.5 °F 55.8 °F 97% 29.95 in 0.5 mi Calm Calm - N/A Fog Fog
3:13 AM 55.2 °F 54.7 °F 98% 29.95 in 0.5 mi Calm Calm - N/A Fog Fog
3:34 AM 54.7 °F 54.0 °F 97% 29.95 in 1.8 mi Calm Calm - N/A   Mostly Cloudy
3:54 AM 53.8 °F 53.1 °F 97% 29.95 in 0.8 mi Calm Calm - N/A   Mostly Cloudy
4:14 AM 54.1 °F 53.6 °F 98% 29.96 in 3.0 mi Calm Calm - N/A   Clear
4:34 AM 53.2 °F 52.7 °F 98% 29.97 in 7.0 mi Calm Calm - N/A   Clear
4:54 AM 54.0 °F 53.4 °F 98% 29.97 in 1.0 mi Calm Calm - N/A   Mist
5:14 AM 52.3 °F 51.8 °F 98% 29.97 in 1.0 mi Calm Calm - N/A   Mostly Cloudy
5:34 AM 52.7 °F 52.3 °F 99% 29.98 in 1.8 mi Calm Calm - N/A   Overcast
5:54 AM 52.5 °F 52.0 °F 98% 29.98 in 0.2 mi Calm Calm - N/A Fog Fog
6:14 AM 52.5 °F 52.2 °F 99% 29.99 in 7.0 mi Calm Calm - N/A   Overcast
6:34 AM 52.2 °F 51.8 °F 99% 29.99 in 10.0 mi Calm Calm - N/A   Scattered Clouds
6:54 AM 51.4 °F 51.1 °F 99% 30.00 in 5.0 mi Calm Calm - N/A   Clear
7:14 AM 52.2 °F 51.8 °F 99% 30.00 in 10.0 mi Calm Calm - N/A   Mostly Cloudy
7:34 AM 54.7 °F 54.5 °F 99% 30.01 in 10.0 mi Calm Calm - N/A   Overcast
7:54 AM 57.4 °F 57.0 °F 99% 30.02 in 10.0 mi NNE 3.5 mph - N/A   Overcast
8:14 AM 57.7 °F 57.4 °F 99% 30.02 in 10.0 mi NNE 4.6 mph - N/A   Overcast
8:34 AM 58.8 °F 58.3 °F 98% 30.02 in 10.0 mi Calm Calm - N/A   Overcast
8:54 AM 59.9 °F 59.0 °F 97% 30.02 in 10.0 mi Calm Calm - N/A   Overcast
9:14 AM 61.9 °F 60.4 °F 95% 30.02 in 10.0 mi NNE 3.5 mph - N/A   Overcast
9:33 AM 63.3 °F 60.1 °F 89% 30.02 in 10.0 mi Calm Calm - N/A   Overcast
9:54 AM 64.8 °F 60.3 °F 85% 30.02 in 10.0 mi Calm Calm - N/A   Overcast
10:14 AM 65.3 °F 60.3 °F 84% 30.02 in 10.0 mi Calm Calm - N/A   Overcast
10:34 AM 67.6 °F 61.3 °F 80% 30.03 in 10.0 mi East 5.8 mph - N/A   Mostly Cloudy
10:54 AM 69.1 °F 61.7 °F 77% 30.03 in 10.0 mi East 5.8 mph - N/A   Mostly Cloudy
11:14 AM 70.0 °F 60.3 °F 71% 30.04 in 7.0 mi East 4.6 mph - N/A   Overcast
11:34 AM 69.8 °F 59.4 °F 69% 30.04 in 10.0 mi East 3.5 mph - N/A   Overcast
11:54 AM 71.1 °F 59.9 °F 68% 30.03 in 10.0 mi ESE 6.9 mph - N/A   Overcast
12:13 PM 70.5 °F 59.4 °F 68% 30.03 in 10.0 mi ESE 3.5 mph - N/A   Mostly Cloudy
12:34 PM 71.6 °F 59.5 °F 66% 30.03 in 10.0 mi East 3.5 mph - N/A   Mostly Cloudy
12:53 PM 71.8 °F 59.9 °F 66% 30.03 in 10.0 mi ENE 5.8 mph - N/A   Mostly Cloudy
1:14 PM 71.8 °F 59.9 °F 66% 30.02 in 10.0 mi NE 6.9 mph - N/A   Mostly Cloudy
1:34 PM 71.1 °F 59.9 °F 68% 30.02 in 10.0 mi NE 8.1 mph - N/A   Mostly Cloudy
1:53 PM 71.6 °F 59.4 °F 65% 30.02 in 7.0 mi ENE 8.1 mph - N/A   Scattered Clouds
2:14 PM 72.1 °F 60.1 °F 66% 30.02 in 7.0 mi NE 6.9 mph - N/A   Mostly Cloudy
2:34 PM 71.6 °F 59.9 °F 66% 30.02 in 10.0 mi NE 8.1 mph - N/A   Scattered Clouds
2:53 PM 70.7 °F 59.5 °F 68% 30.02 in 7.0 mi NE 8.1 mph - N/A   Scattered Clouds
3:13 PM 71.2 °F 60.3 °F 68% 30.02 in 10.0 mi ENE 10.4 mph - N/A   Scattered Clouds
3:34 PM 71.1 °F 59.7 °F 67% 30.01 in 10.0 mi North 5.8 mph - N/A   Scattered Clouds
3:54 PM 70.7 °F 58.6 °F 66% 30.01 in 10.0 mi East 6.9 mph - N/A   Scattered Clouds
4:13 PM 72.5 °F 59.9 °F 64% 30.01 in 10.0 mi NNE 5.8 mph - N/A   Scattered Clouds
4:34 PM 72.5 °F 59.2 °F 63% 30.01 in 10.0 mi ENE 4.6 mph - N/A   Scattered Clouds
4:54 PM 72.9 °F 59.2 °F 62% 30.00 in 10.0 mi East 10.4 mph - N/A   Scattered Clouds
5:13 PM 72.7 °F 59.2 °F 62% 30.00 in 10.0 mi East 8.1 mph - N/A   Scattered Clouds
5:34 PM 72.9 °F 58.5 °F 60% 30.00 in 10.0 mi East 5.8 mph - N/A   Clear
6:13 PM 72.5 °F 59.0 °F 62% 29.99 in 10.0 mi ENE 8.1 mph - N/A   Clear
6:34 PM 72.0 °F 59.4 °F 64% 29.99 in 10.0 mi ENE 6.9 mph - N/A   Clear
6:54 PM 71.6 °F 59.0 °F 64% 29.99 in 10.0 mi ENE 6.9 mph - N/A   Clear
7:13 PM 70.5 °F 58.6 °F 66% 29.99 in 10.0 mi East 9.2 mph - N/A   Clear
7:34 PM 69.1 °F 58.8 °F 70% 29.99 in 10.0 mi ENE 5.8 mph - N/A   Clear
7:54 PM 67.5 °F 59.2 °F 75% 29.99 in 10.0 mi ENE 8.1 mph - N/A   Clear
8:13 PM 66.6 °F 59.9 °F 79% 29.99 in 10.0 mi East 6.9 mph - N/A   Clear
8:34 PM 64.4 °F 59.7 °F 85% 29.99 in 10.0 mi ENE 6.9 mph - N/A   Clear
8:53 PM 63.7 °F 61.0 °F 91% 29.99 in 10.0 mi ENE 6.9 mph - N/A   Clear
9:14 PM 63.1 °F 61.2 °F 93% 30.00 in 10.0 mi ENE 6.9 mph - N/A   Clear
9:34 PM 62.6 °F 61.0 °F 94% 30.00 in 10.0 mi ENE 6.9 mph - N/A   Clear
9:53 PM 63.0 °F 61.3 °F 94% 30.00 in 10.0 mi NE 5.8 mph - N/A   Clear
10:14 PM 62.1 °F 60.4 °F 94% 30.01 in 10.0 mi NE 4.6 mph - N/A   Clear
10:33 PM 61.3 °F 60.1 °F 96% 30.01 in 10.0 mi NE 4.6 mph - N/A   Clear
10:54 PM 60.4 °F 59.2 °F 96% 30.00 in 10.0 mi ENE 3.5 mph - N/A   Clear
11:14 PM 60.4 °F 59.5 °F 97% 30.01 in 7.0 mi ENE 3.5 mph - N/A   Clear
11:33 PM 60.1 °F 59.2 °F 97% 30.01 in 5.0 mi Calm Calm - N/A   Clear
11:54 PM 59.2 °F 58.5 °F 97% 30.01 in 2.5 mi ENE 3.5 mph - N/A   Clear